Regional Weather Roundup
Issued by NWS

Home | Current Version | Previous Version | Graphics & Text | Print | Product List | Glossary On
Versions: 1 2 3 4 5 6 7 8 9 10 11 12 13 14 15 16 17 18 19 20 21 22 23 24 25 26 27 28 29 30 31 32 33 34 35 36 37 38 39 40 41 42 43 44 45 46 47 48 49 50
000
ASUS43 KBIS 191910
RWRND

NORTH DAKOTA REGIONAL WEATHER ROUNDUP
NATIONAL WEATHER SERVICE BISMARCK ND
200 PM CDT THU OCT 19 2017

NOTE: "FAIR" INDICATES FEW OR NO CLOUDS BELOW 12,000 FEET WITH NO
SIGNIFICANT WEATHER AND/OR OBSTRUCTIONS TO VISIBILITY.


NDZ001>003-009>011-017-192000-
NORTHWEST NORTH DAKOTA

CITY           SKY/WX    TMP DP  RH WIND       PRES   REMARKS
WILLISTON      FAIR      72  36  26 SW9       29.69F
MINOT          FAIR      75  33  21 SW13      29.68F
MINOT AFB      FAIR      75  34  22 W13       29.66F
$$

NDZ018>021-031>035-040>046-192000-
SOUTHWEST NORTH DAKOTA

CITY           SKY/WX    TMP DP  RH WIND       PRES   REMARKS
BISMARCK       FAIR      73  35  25 S8        29.76F
DICKINSON      FAIR      79  29  16 W12       29.74F
GARRISON         N/A     70  35  27 S8        29.72F
HETTINGER ARPT FAIR      79  27  14 SW7       29.79F
$$

NDZ004>008-012>016-024-026-027-054-192000-
NORTHEAST NORTH DAKOTA

CITY           SKY/WX    TMP DP  RH WIND       PRES   REMARKS
GRAND FORKS    PTSUNNY   65  37  35 S15       29.77F
GRND FRKS AFB  FAIR      65  36  34 S13       29.77F
DEVILS LAKE    FAIR      67  38  34 S9        29.74F
$$

NDZ022-023-025-028>030-036>039-047>053-192000-
SOUTHEAST NORTH DAKOTA

CITY           SKY/WX    TMP DP  RH WIND       PRES   REMARKS
FARGO          FAIR      73  39  29 S25G31    29.80F
JAMESTOWN      FAIR      71  37  28 SW12      29.76F
$$





USA.gov is the U.S. government's official web portal to all federal, state and local government web resources and services.